Regional Weather Roundup
Issued by NWS

Home | Current Version | Previous Version | Text Only | Print | Product List | Glossary On
Versions: 1 2 3 4 5 6 7 8 9 10 11 12 13 14 15 16 17 18 19 20 21 22 23 24 25 26 27 28 29 30 31 32 33 34 35 36 37 38 39 40 41 42 43 44 45 46 47 48 49 50
000
ASCA42 TJSJ 251211
RWRPR
PUERTO RICO/U.S. VIRGIN ISLANDS HOURLY WEATHER ROUNDUP
NATIONAL WEATHER SERVICE SAN JUAN PR
800 AM AST THU DEC 25 2014

PRZ001-004-251300-
PUERTO RICO

CITY           SKY/WX    TMP DP  RH WIND       PRES   REMARKS
SAN JUAN LMM   PTSUNNY   75  72  88 CALM      30.09R
AGUADILLA      PTSUNNY   72  70  94 SE5       30.10R
CEIBA          SUNNY     79  68  69 NE9       30.10R
$$

PRZ006-007-251300-
U.S. VIRGIN ISLANDS

CITY           SKY/WX    TMP DP  RH WIND       PRES   REMARKS
CHARLOTTE AMA  MOSUNNY   77  70  78 E12G22    30.07R
CHRISTIANSTED  MOSUNNY   75  70  83 NE10      30.08R
$$

HOURLY WEATHER ROUNDUP FOR THE NEWS MEDIA

CITY           SKY/WX    TMP DP  RH WIND       PRES   REMARKS
MIAMI          LGT RAIN  68  64  87 E5        30.09R
ORLANDO        PTCLDY    58  49  72 NW6       30.11R
NEW YORK       LGT RAIN  54  46  76 NW15G25   29.63R
NEWARK         LGT RAIN  50  45  83 W12       29.64R
CHICAGO        CLOUDY    34  27  75 W13G22    29.83R WCI  25
HARTFORD       LGT RAIN  58  57  97 SW15G22   29.55R
BOSTON         LGT RAIN  55  55 100 S12       29.49F
DALLAS         PTCLDY    40  27  59 S13       29.99F WCI  32
PHILADELPHIA   CLOUDY    51  40  65 W13G22    29.70R


USA.gov is the U.S. government's official web portal to all federal, state and local government web resources and services.